FENGYUN 1C DEB, 31272

Orbit data source: Space-Track

FENGYUN 1C DEB, 31272 is space debris in SSO originally from a launch on Mon, 10 May 1999 UTC launched from the Taiyaun Space Center, China (TSC). Fengyun 1C debris stems from the Chinese weather satellite Fengyun-1C, which was intentionally destroyed by a Chinese anti-satellite missile in 2007. This event dramatically increased the amount of space debris, with thousands of trackable fragments posing hazards to satellites and human spaceflight. The Fengyun 1C debris cloud has become a focal point in discussions about space sustainability and the need for international regulations to prevent the creation of new debris.

Loading next visibility...
Identifier
31272, 1999-025BNE
Orbit
SSO
Country
Flag of CNCN / PRC
Related business
Manufacturer
Unknown
Mission
Spacecraft
Bus & Motor
Unknown
Mass
Unknown
Launch date (UTC)
1999-05-10 (27 years ago)
Launch vehicle
Unknown
Launch site
Taiyaun Space Center, China (TSC)
Object type
Payload
Rocket body
Debris
Shape & HBR
Unknown shape, 0.1 m
Radar Cross Section
Small (<0.1 m²)

Expand to show TLE details & history
Last TLE update: 19 hours ago

TLE from 19 hours ago
0 FENGYUN 1C DEB
1 31272U 99025BNE 25354.39843114  .00000799  00000-0  35428-3 0  9992
2 31272  99.0919 226.4489 0106994  91.0458 270.2980 14.22935455970986
Epoch: 2025-12-20T09:33Z
TLE epoch observation values (Epoch: 2025-12-20T09:33:44.450Z)
Latitude
0.00004°
Longitude
-6.21212°
Altitude
818.772 km
Speed
7.444 km/s
True Right ascension
15h 05m 47s
True Declination
0° 00' 00"
Sunlit
Object was in daylight at epoch
Visualization orbit readout
Latitude
Unknown
Longitude
Unknown
Altitude
Unknown
Speed
Unknown
Apparent Right ascension
Unknown
Apparent Declination
Unknown
Sunlit
N/A
Visualization observer readout
Local Sidereal Time
03:51:54
Azimuth
Unknown
Elevation
Unknown
Doppler factor
Unknown
Orbital elements
Apogee altitude
889.552 km
Perigee altitude
735.679 km
Semi-major axis
7,190.752 km
Eccentricity
0.0107
Inclination
99.0919°
RAAN
226.4489°
Arg. of periapsis
91.0458°
True anomaly
269.07196°
Mean anomaly
270.298°
Eccentric anomaly
269.68498°
Mean motion
3.55944 °/min
Orbital period
101.14 mins
BSTAR
0.00035428
Loading maneuver chart data...
Computing Atmospheric mass density...

Documentation

Showing up to 5 results
|